EXPRESS AMU-7

Last updated on Sat Apr 13 2024 01:02:40 GMT+0100 (British Summer Time)

1 50001U 21123A 24103.03959409 -.00000251 00000+0 00000+0 0 9991 2 50001 0.0231 253.9087 0000159 145.2302 320.8543 1.00272889 8561
UTC large
Height (km)
Speed (km/s)
/
Latitude / Longitude
Inclination (degrees)
Orbital Period (minutes)
Azimuth
Elevation
Range (km)
Doppler Factor

Next 0 passes for location: London (51.5072 / 0.1276)

Sorry there are no passes over London.